[[{"header":{"parameterUnit":"m.s-1","parameterCategory":1,"la1":30.2991,"la2":30.254,"lo1":-89.0895,"lo2":-89.0444,"dy":0.0017,"dx":0.0017,"nx":28,"ny":28,"refTime":"2024-10-10T21:00:00:Z","depth":0,"parameterNumber":2,"parameterNumberName":"U-component_of_WINDS"},"data":[0,0,0,0,0,0,0,0,0,0,0,0,0,0,0,0,0,0,0,0,0,0,0,0,0,0,0,0,0,0,0,0,0,0,0,0,0,0,0,0,0,0,0,0,0,0,0,0,0,0,0,0,0,0,0,0,0,0,-2.6989,-2.699,0,-2.7041,-2.7042,-2.7042,-2.6997,-2.6995,-2.6993,-2.6991,-2.7047,-2.705,-2.7053,0,0,0,0,0,0,0,0,0,0,0,0,0,-2.6853,-2.6856,-2.6989,-2.699,-2.699,-2.7041,-2.7042,-2.7042,-2.6997,-2.6995,-2.6993,-2.6991,-2.7046,-2.705,-2.7054,0,0,0,0,0,0,0,0,0,0,0,0,0,-2.6909,-2.6857,-2.6989,-2.6974,-2.6973,-2.7041,-2.7042,-2.7043,-2.6998,-2.6995,-2.6992,-2.6989,-2.7045,-2.705,-2.7054,-2.714,0,0,-2.7069,-2.7071,0,0,0,0,0,0,0,0,-2.6906,-2.6914,-2.6975,-2.6975,-2.6974,-2.701,-2.7014,-2.7076,-2.6998,-2.6988,-2.6991,-2.6988,-2.7037,-2.7042,-2.7058,-2.7143,-2.7145,-2.707,-2.7072,-2.7075,-2.7076,0,0,0,0,0,0,0,-2.6902,-2.6912,-2.701,-2.6976,-2.6976,-2.6965,-2.697,-2.7026,-2.7028,-2.6989,-2.6986,-2.6993,-2.7036,-2.7054,-2.7059,-2.7146,-2.7069,-2.7074,-2.7077,-2.7079,-2.7306,-2.7308,0,0,0,0,0,0,-2.69,-2.6909,-2.7008,-2.7011,-2.6932,-2.697,-2.6975,-2.7001,-2.7027,-2.7028,-2.6995,-2.699,-2.7047,-2.7054,-2.7061,-2.7164,-2.7075,-2.7079,-2.7082,-2.7302,-2.7306,-2.731,0,0,0,0,0,0,-2.6897,-2.6909,-2.7006,-2.6959,-2.6971,-2.6975,-2.7004,-2.7004,-2.7021,-2.7032,-2.7032,-2.7012,-2.7045,-2.7054,-2.7121,-2.7165,-2.7081,-2.7086,-2.7299,-2.7304,-2.7308,-2.7371,0,0,0,0,0,0,-2.6893,-2.6908,-2.694,-2.696,-2.6973,-2.7064,-2.7007,-2.7007,-2.7029,-2.7024,-2.7048,-2.7049,-2.7043,-2.7114,-2.7126,-2.7171,-2.7089,-2.7295,-2.7301,-2.7306,-2.7365,-2.7377,-2.7388,0,0,0,0,0,-2.6889,-2.6956,-2.6942,-2.6954,-2.7014,-2.7067,-2.7075,-2.7066,-2.7033,-2.7066,-2.7073,-2.7049,-2.7159,-2.7121,-2.7134,-2.7181,-2.7292,-2.7299,-2.7306,-2.736,-2.7375,-2.7387,0,0,0,0,0,0,-2.6942,-2.6959,-2.6943,-2.7019,-2.7042,-2.7059,-2.71,-2.7082,-2.7115,-2.7108,-2.7097,-2.7103,-2.7173,-2.7184,-2.7142,-2.7267,-2.722,-2.723,-2.7257,-2.7271,-2.7282,-2.7278,-2.7093,0,0,0,0,0,-2.6962,-2.7004,-2.7016,-2.7082,-2.7094,-2.7096,-2.7118,-2.711,-2.7133,-2.7143,-2.7154,-2.7179,-2.7219,-2.7246,-2.7283,-2.7366,-2.7372,-2.7405,-2.7416,-2.7426,-2.7435,-2.748,-2.7495,-2.7333,-2.7333,-2.7332,0,0,-2.7005,-2.702,-2.7046,-2.7093,-2.711,-2.7154,-2.7104,-2.7152,-2.7185,-2.715,-2.7214,-2.7224,-2.725,-2.7326,-2.736,-2.7337,-2.7481,-2.7435,-2.7442,-2.7446,-2.7489,-2.7504,-2.7518,-2.7337,-2.7337,-2.7336,0,0,-2.7106,-2.7121,-2.7177,-2.7195,-2.7221,-2.7221,-2.7235,-2.7255,-2.726,-2.7324,-2.7299,-2.7338,-2.7408,-2.7428,-2.7447,-2.7557,-2.7536,-2.7569,-2.7629,-2.7673,-2.7686,-2.7698,-2.7737,-2.7751,-2.7578,-2.7578,-2.7578,0,-2.7156,-2.722,-2.7209,-2.7259,-2.7281,-2.7252,-2.731,-2.7328,-2.7365,-2.7381,-2.7355,-2.7441,-2.7457,-2.7537,-2.7564,-2.7581,-2.7597,-2.7566,-2.7685,-2.7696,-2.7707,-2.7745,-2.7759,-2.7582,-2.7582,-2.7581,-2.7581,0,-2.7281,-2.7326,-2.7369,-2.7405,-2.7432,-2.7486,-2.7484,-2.7512,-2.7502,-2.7505,-2.7571,-2.7589,-2.763,-2.7649,-2.7639,-2.7728,-2.7713,-2.7687,-2.764,-2.7726,-2.7762,-2.7776,-2.7588,-2.7586,-2.7585,-2.7584,0,0,-2.7416,-2.7445,-2.7461,-2.7478,-2.7504,-2.7539,-2.7593,-2.7632,-2.7657,-2.7684,-2.7729,-2.7789,-2.7764,-2.7787,-2.7779,-2.7818,-2.7905,-2.7787,-2.7787,-2.7808,-2.8005,-2.8025,-2.8042,-2.7891,-2.7894,-2.7896,-2.8003,0,-2.7517,-2.7609,-2.7601,-2.7688,-2.773,-2.7703,-2.775,-2.7772,-2.7777,-2.7814,-2.782,-2.7863,-2.7827,-2.784,-2.7878,-2.7886,-2.7944,-2.7878,-2.7934,-2.7936,-2.7928,-2.806,-2.8081,-2.8181,-2.8016,-2.8019,-2.802,0,-2.7648,-2.7679,-2.777,-2.7791,-2.7809,-2.785,-2.7886,-2.7922,-2.7947,-2.7948,-2.7973,-2.796,-2.8014,-2.7967,-2.8043,-2.7998,-2.8021,-2.8028,-2.8032,-2.8037,-2.7983,-2.8068,-2.8212,-2.8227,-2.8042,-2.804,-2.8039,0,-2.7737,-2.7802,-2.7865,-2.788,-2.7906,-2.7936,-2.7949,-2.7971,-2.7995,-2.8027,-2.8043,-2.8082,-2.8103,-2.8133,-2.8131,-2.8096,-2.8209,-2.816,-2.8212,-2.8212,-2.8236,-2.8235,-2.8386,-2.8251,-2.8251,-2.825,-2.825,0,-2.7851,-2.7908,-2.7906,-2.7944,-2.8008,-2.7999,-2.8062,-2.8071,-2.8092,-2.8133,-2.8112,-2.8151,-2.8145,-2.8185,-2.8184,-2.8247,-2.8257,-2.826,-2.8259,-2.8262,-2.8261,-2.8276,-2.8269,-2.8254,-2.8253,-2.8253,-2.8252,0,-2.7961,-2.7962,-2.8029,-2.8048,-2.8055,-2.8101,-2.8118,-2.8155,-2.8159,-2.8211,-2.8223,-2.8229,-2.8275,-2.8275,-2.8328,-2.8327,-2.8405,-2.8396,-2.8396,-2.8394,-2.8446,-2.8441,-2.8611,-2.8633,-2.8484,-2.8486,-2.8487,0,-2.8034,-2.8077,-2.8102,-2.8127,-2.8141,-2.8183,-2.8208,-2.8202,-2.8229,-2.8261,-2.8295,-2.8338,-2.8373,-2.8447,-2.8457,-2.8498,-2.849,-2.8547,-2.8496,-2.8497,-2.8491,-2.8488,-2.8493,-2.8557,-2.8558,-2.856,-2.8561,0,-2.8163,-2.8162,-2.8198,-2.8235,-2.8265,-2.8294,-2.8321,-2.8344,-2.834,-2.8372,-2.8418,-2.8445,-2.8498,-2.8542,-2.8582,-2.8595,-2.8578,-2.8577,-2.8591,-2.8594,-2.8592,-2.8594,-2.8423,-2.8573,-2.8572,-2.8571,-2.857,-2.857,-2.8257,-2.8294,-2.8317,-2.8359,-2.8378,-2.8404,-2.844,-2.8449,-2.8487,-2.8529,-2.8524,-2.8575,-2.8601,-2.8651,-2.8669,-2.871,-2.869,-2.8711,-2.8716,-2.8721,-2.8727,-2.8586,-2.8717,-2.8717,-2.8717,-2.8716,-2.8716,0,-2.8385,-2.8399,-2.8437,-2.8475,-2.8508,-2.8489,-2.8518,-2.8547,-2.8592,-2.8617,-2.8651,-2.8705,-2.8748,-2.8762,-2.8803,-2.8834,-2.8827,-2.8845,-2.8843,-2.8847,-2.8742,-2.8725,-2.885,-2.885,-2.885,-2.885,-2.885,-2.885,-2.8456,-2.8518,-2.8519,-2.8592,-2.8605,-2.8655,-2.8673,-2.8698,-2.8717,-2.8778,-2.8813,-2.8821,-2.8842,-2.8886,-2.8925,-2.8928,-2.8944,-2.8966,-2.8966,-2.8867,-2.8854,-2.8841,-2.8826,-2.8969,-2.8969,-2.9067,-2.9068,-2.9069]},{"header":{"parameterUnit":"m.s-1","parameterCategory":1,"la1":30.2991,"la2":30.254,"lo1":-89.0895,"lo2":-89.0444,"dy":0.0017,"dx":0.0017,"nx":28,"ny":28,"refTime":"2024-10-10T21:00:00:Z","depth":0,"parameterNumber":3,"parameterNumberName":"V-component_of_WINDS"},"data":[0,0,0,0,0,0,0,0,0,0,0,0,0,0,0,0,0,0,0,0,0,0,0,0,0,0,0,0,0,0,0,0,0,0,0,0,0,0,0,0,0,0,0,0,0,0,0,0,0,0,0,0,0,0,0,0,0,0,-0.5363,-0.5363,0,-0.5372,-0.5372,-0.5372,-0.5353,-0.5352,-0.5352,-0.5351,-0.536,-0.5361,-0.5362,0,0,0,0,0,0,0,0,0,0,0,0,0,-0.5329,-0.533,-0.5363,-0.5363,-0.5363,-0.5372,-0.5372,-0.5372,-0.5353,-0.5352,-0.5351,-0.5351,-0.536,-0.5361,-0.5362,0,0,0,0,0,0,0,0,0,0,0,0,0,-0.5342,-0.533,-0.5363,-0.5355,-0.5354,-0.5372,-0.5372,-0.5372,-0.5353,-0.5352,-0.5351,-0.535,-0.536,-0.5361,-0.5362,-0.5389,0,0,-0.5366,-0.5367,0,0,0,0,0,0,0,0,-0.5341,-0.5343,-0.5356,-0.5355,-0.5354,-0.536,-0.5364,-0.5378,-0.5353,-0.5353,-0.5351,-0.535,-0.5361,-0.5362,-0.5366,-0.5389,-0.539,-0.5366,-0.5367,-0.5367,-0.5368,0,0,0,0,0,0,0,-0.534,-0.5342,-0.5366,-0.5356,-0.5355,-0.535,-0.5351,-0.5366,-0.5362,-0.5353,-0.5352,-0.5353,-0.5361,-0.5365,-0.5366,-0.539,-0.5366,-0.5367,-0.5368,-0.5369,-0.5435,-0.5436,0,0,0,0,0,0,-0.534,-0.5342,-0.5366,-0.5367,-0.5345,-0.5352,-0.5353,-0.5359,-0.5362,-0.5362,-0.5354,-0.5352,-0.5363,-0.5365,-0.5366,-0.5398,-0.5367,-0.5369,-0.5369,-0.5434,-0.5436,-0.5437,0,0,0,0,0,0,-0.534,-0.5343,-0.5366,-0.5354,-0.5356,-0.5353,-0.5361,-0.536,-0.5364,-0.5363,-0.5362,-0.5359,-0.5362,-0.5365,-0.5383,-0.5398,-0.5369,-0.537,-0.5433,-0.5435,-0.5436,-0.5461,0,0,0,0,0,0,-0.5339,-0.5343,-0.5353,-0.5354,-0.5357,-0.5383,-0.5362,-0.5361,-0.5366,-0.5364,-0.5367,-0.5367,-0.5362,-0.5382,-0.5385,-0.5399,-0.5371,-0.5432,-0.5434,-0.5436,-0.5459,-0.5463,-0.5467,0,0,0,0,0,-0.5338,-0.5359,-0.5353,-0.5356,-0.537,-0.5384,-0.5385,-0.5379,-0.5368,-0.5378,-0.5377,-0.5367,-0.5396,-0.5384,-0.5387,-0.5402,-0.5431,-0.5433,-0.5435,-0.5457,-0.5462,-0.5466,0,0,0,0,0,0,-0.5359,-0.5359,-0.5353,-0.5375,-0.538,-0.538,-0.5393,-0.5385,-0.5393,-0.539,-0.5382,-0.5383,-0.5404,-0.5404,-0.5391,-0.5428,-0.5411,-0.5414,-0.5426,-0.5431,-0.5435,-0.5435,-0.5372,0,0,0,0,0,-0.5367,-0.5378,-0.5377,-0.5397,-0.54,-0.5396,-0.5402,-0.5397,-0.5401,-0.5403,-0.5403,-0.5408,-0.5418,-0.5425,-0.5434,-0.5458,-0.5459,-0.547,-0.5474,-0.5478,-0.548,-0.5494,-0.5499,-0.5444,-0.5444,-0.5444,0,0,-0.5382,-0.5383,-0.5391,-0.5402,-0.5404,-0.5416,-0.5398,-0.5411,-0.542,-0.5405,-0.5423,-0.5423,-0.5428,-0.545,-0.5459,-0.5451,-0.5496,-0.5481,-0.5483,-0.5484,-0.5497,-0.5502,-0.5507,-0.5446,-0.5446,-0.5445,0,0,-0.5416,-0.5418,-0.5435,-0.5438,-0.5443,-0.544,-0.5444,-0.5446,-0.5446,-0.5464,-0.5453,-0.5463,-0.5481,-0.5484,-0.5488,-0.5524,-0.5515,-0.5527,-0.5548,-0.5561,-0.5566,-0.557,-0.5583,-0.5587,-0.553,-0.553,-0.553,0,-0.5435,-0.5452,-0.5445,-0.5459,-0.5464,-0.5451,-0.5468,-0.5472,-0.5479,-0.5483,-0.5474,-0.5495,-0.5497,-0.552,-0.5529,-0.5533,-0.5537,-0.5527,-0.5566,-0.5569,-0.5573,-0.5585,-0.559,-0.5532,-0.5531,-0.5531,-0.5531,0,-0.5475,-0.5488,-0.5501,-0.5508,-0.5515,-0.553,-0.5526,-0.5533,-0.5527,-0.5526,-0.5544,-0.5546,-0.5556,-0.556,-0.5555,-0.5583,-0.5577,-0.5567,-0.555,-0.558,-0.5591,-0.5596,-0.5534,-0.5533,-0.5533,-0.5532,0,0,-0.5523,-0.5526,-0.5531,-0.5535,-0.5539,-0.5548,-0.5563,-0.5572,-0.5579,-0.5584,-0.5597,-0.5612,-0.5603,-0.5607,-0.5602,-0.5614,-0.5642,-0.5602,-0.5602,-0.561,-0.5673,-0.5681,-0.5687,-0.5636,-0.5637,-0.5638,-0.5673,0,-0.5557,-0.5583,-0.5577,-0.5603,-0.5615,-0.5602,-0.5615,-0.5619,-0.5618,-0.5628,-0.5626,-0.5637,-0.5624,-0.5627,-0.5637,-0.5637,-0.5655,-0.5634,-0.5648,-0.5649,-0.5648,-0.5693,-0.5701,-0.5734,-0.5677,-0.5678,-0.5678,0,-0.5601,-0.5608,-0.5635,-0.5637,-0.5641,-0.5653,-0.5661,-0.5671,-0.5675,-0.5673,-0.5679,-0.5671,-0.5686,-0.5669,-0.569,-0.5676,-0.5681,-0.5682,-0.5683,-0.5684,-0.5666,-0.5695,-0.5744,-0.5749,-0.5685,-0.5685,-0.5684,0,-0.5634,-0.565,-0.5668,-0.5671,-0.5674,-0.5683,-0.5684,-0.5688,-0.5693,-0.57,-0.5704,-0.5713,-0.5718,-0.5725,-0.572,-0.5708,-0.5742,-0.5724,-0.5741,-0.5741,-0.5749,-0.5749,-0.58,-0.5752,-0.5752,-0.5752,-0.5752,0,-0.5672,-0.5689,-0.5683,-0.5694,-0.5713,-0.5706,-0.5724,-0.5725,-0.5728,-0.5739,-0.5728,-0.5739,-0.5732,-0.5742,-0.5738,-0.5756,-0.5758,-0.5758,-0.5757,-0.5759,-0.5759,-0.5763,-0.576,-0.5753,-0.5753,-0.5753,-0.5752,0,-0.5712,-0.5708,-0.5728,-0.5729,-0.5729,-0.5743,-0.5744,-0.5755,-0.5753,-0.5767,-0.577,-0.5767,-0.5779,-0.5774,-0.5787,-0.5784,-0.5807,-0.5803,-0.5806,-0.5805,-0.5822,-0.582,-0.5877,-0.5884,-0.5832,-0.5832,-0.5833,0,-0.5737,-0.575,-0.5753,-0.5759,-0.5762,-0.5773,-0.5779,-0.5772,-0.5779,-0.5785,-0.5795,-0.5805,-0.5813,-0.5832,-0.5831,-0.5841,-0.5837,-0.5856,-0.5838,-0.584,-0.5837,-0.5837,-0.5838,-0.586,-0.586,-0.5861,-0.5861,0,-0.5783,-0.578,-0.5789,-0.5798,-0.5805,-0.5812,-0.5817,-0.5823,-0.5817,-0.5825,-0.5837,-0.5843,-0.5856,-0.5866,-0.5875,-0.5876,-0.5868,-0.5867,-0.5871,-0.5874,-0.5875,-0.5875,-0.5816,-0.5865,-0.5865,-0.5865,-0.5864,-0.5864,-0.5816,-0.5827,-0.5831,-0.5841,-0.5844,-0.585,-0.586,-0.5859,-0.5869,-0.5878,-0.5874,-0.5887,-0.5891,-0.5902,-0.5905,-0.5915,-0.5908,-0.5914,-0.5916,-0.5918,-0.592,-0.5873,-0.5917,-0.5916,-0.5916,-0.5916,-0.5916,0,-0.5861,-0.5863,-0.5872,-0.588,-0.5889,-0.588,-0.5886,-0.5893,-0.5905,-0.591,-0.5918,-0.5931,-0.5941,-0.5941,-0.5951,-0.5959,-0.5956,-0.5962,-0.5962,-0.5962,-0.5926,-0.5921,-0.5965,-0.5965,-0.5965,-0.5965,-0.5965,-0.5965,-0.5885,-0.5903,-0.5901,-0.5921,-0.5923,-0.5936,-0.594,-0.5945,-0.5948,-0.5964,-0.5972,-0.5972,-0.5975,-0.5984,-0.5994,-0.5993,-0.5997,-0.6005,-0.6004,-0.597,-0.5965,-0.596,-0.5956,-0.6006,-0.6006,-0.6039,-0.604,-0.604]}]]